Location: Unspecified
(0.0000°N, 0.0000°E)
Time: 13:27:06
(UTC+00:00)

THORAD DELTA 1 DEB - Pass Details

Date: 18 February 2026
Orbit: 1442 x 1568 km, 101.4° (Epoch: 22 February)

Event Time Altitude Azimuth Distance (km) Brightness Sun altitude
Exits shadow 21:56:12 27° 244° (WSW) 2,667 ? -54.0°
Drops below altitude 10° 22:00:23 10° 222° (SW) 3,752 ? -55.0°
Sets 22:03:33 0° 214° (SW) 4,728 ? -55.7°
